Regional Weather Roundup
Issued by NWS Charleston, WV

Home | Current Version | Previous Version | Graphics & Text | Print | Product List | Glossary On
Versions: 1 2 3 4 5 6 7 8 9 10 11 12 13 14 15 16 17 18 19 20 21 22 23 24 25 26 27 28 29 30 31 32 33 34 35 36 37 38 39 40 41 42 43 44 45 46 47 48 49 50
000
ASUS41 KRLX 230210
RWRRLX
West Virginia Regional Weather Roundup
National Weather Service Charleston WV
1000 PM EDT TUE AUG 22 2017

Note: "fair" indicates few or no clouds below 12,000 feet with no
significant weather and/or obstructions to visibility.

WVZ003-230300-
Northern Panhandle of West Virginia

CITY           SKY/WX    TMP DP  RH WIND       PRES   REMARKS
WHEELING       MOCLDY    72  68  87 SW8       29.89R
$$

WVZ009-230300-
Northwest West Virginia

CITY           SKY/WX    TMP DP  RH WIND       PRES   REMARKS
PARKERSBURG    LGT RAIN  73  72  96 W7        29.94R
$$

WVZ006-230300-
Western West Virginia

CITY           SKY/WX    TMP DP  RH WIND       PRES   REMARKS
HUNTINGTON     CLOUDY    73  71  93 SW6       29.95R
$$

WVZ015-230300-
West Central West Virginia

CITY           SKY/WX    TMP DP  RH WIND       PRES   REMARKS
CHARLESTON     LGT RAIN  73  70  90 SW8       29.95S
$$

WVZ022-031-230300-
North Central West Virginia

CITY           SKY/WX    TMP DP  RH WIND       PRES   REMARKS
CLARKSBURG     LGT RAIN  72  69  90 W6        29.92R FOG
MORGANTOWN     LGT RAIN  72  70  93 S6        29.92R
$$

WVZ025-035-042-045-230300-
Southern West Virginia

CITY           SKY/WX    TMP DP  RH WIND       PRES   REMARKS
BECKLEY        RAIN      70  67  90 SW5       30.05R FOG
LOGAN          CLOUDY    73  70  88 CALM      29.98F
BLUEFIELD      CLOUDY    72  62  71 NW6       30.07S
LEWISBURG      CLOUDY    73  64  75 SW3       30.03S
$$

WVZ047-230300-
Northern Mountains of West Virginia

CITY           SKY/WX    TMP DP  RH WIND       PRES   REMARKS
ELKINS         HVY RAIN  72  67  84 W10       29.98R
$$

WVZ052-230300-
Eastern Panhandle of West Virginia

CITY           SKY/WX    TMP DP  RH WIND       PRES   REMARKS
MARTINSBURG    MOCLDY    74  70  87 SE3       29.83R
PETERSBURG     LGT RAIN  77  72  84 NW3       29.89R
$$



USA.gov is the U.S. government's official web portal to all federal, state and local government web resources and services.